This is the latest recevied weather packets stored in our database for station/object 9W2CHF-4. If no packets are shown the sender has not sent any weather packets the latest 10 day(s).
| Time | Temp. | Humidity | Pressure | Rain* | Wind** | Luminosity | Snow |
|---|---|---|---|---|---|---|---|
| 1777590505 | 32.78° C | 76% | 1010.3 hPa | - | - | - | - |
| 1777589604 | 32.78° C | 72% | 1010.2 hPa | - | - | - | - |
| 1777588704 | 32.78° C | 75% | 1010.3 hPa | - | - | - | - |
| 1777587802 | 32.78° C | 71% | 1009.9 hPa | - | - | - | - |
| 1777586902 | 32.78° C | 72% | 1009.8 hPa | - | - | - | - |
| 1777586002 | 32.78° C | 72% | 1010 hPa | - | - | - | - |
| 1777585101 | 33.33° C | 71% | 1009.9 hPa | - | - | - | - |
| 1777584201 | 33.33° C | 72% | 1009.6 hPa | - | - | - | - |
| 1777583300 | 33.33° C | 71% | 1009.6 hPa | - | - | - | - |
| 1777582408 | 33.33° C | 72% | 1009.3 hPa | - | - | - | - |
| 1777581508 | 32.78° C | 71% | 1009.5 hPa | - | - | - | - |
| 1777580608 | 33.33° C | 73% | 1009.3 hPa | - | - | - | - |
| 1777579707 | 33.33° C | 69% | 1009.5 hPa | - | - | - | - |
| 1777578807 | 32.78° C | 68% | 1009.6 hPa | - | - | - | - |
| 1777577907 | 33.33° C | 69% | 1009.7 hPa | - | - | - | - |
| 1777577007 | 33.33° C | 71% | 1009.8 hPa | - | - | - | - |
| 1777576107 | 33.33° C | 66% | 1010 hPa | - | - | - | - |
| 1777575207 | 33.33° C | 67% | 1010.1 hPa | - | - | - | - |
| 1777574307 | 33.33° C | 65% | 1010.2 hPa | - | - | - | - |
| 1777573407 | 33.33° C | 66% | 1010.5 hPa | - | - | - | - |
| 1777572507 | 33.33° C | 68% | 1010.7 hPa | - | - | - | - |
| 1777571607 | 33.89° C | 66% | 1010.9 hPa | - | - | - | - |
| 1777570707 | 33.33° C | 68% | 1011.1 hPa | - | - | - | - |
| 1777569807 | 33.33° C | 66% | 1011.1 hPa | - | - | - | - |
| 1777568906 | 33.89° C | 65% | 1011.1 hPa | - | - | - | - |
* Rain since midnight (hover to see other rain measurements)
** Current wind speed in m/s (hover to see current wind gust speed)